GEFSCGP_500_meanwind_168.txt.gz
Wind_Speed
6 8 9 10 10 10 9 9 9 8 8 9 10 10 11 10 11 12 12 11 11 11 11 11 11 9 9 8 8 7 6 6 6 5 5 4 4 5 5 6 6 7 8 9
7 8 8 10 10 10 9 9 9 8 9 9 10 11 11 10 10 12 12 11 10 11 11 10 10 9 9 8 7 7 6 6 6 6 5 5 5 5 6 6 7 8 9 9
7 8 9 10 10 11 10 9 9 9 9 9 9 10 11 11 11 12 11 11 10 10 9 9 9 9 9 7 7 7 7 7 6 6 6 6 6 6 6 6 7 8 9 9
8 8 9 10 10 10 10 9 9 9 9 9 9 9 10 11 11 11 11 11 10 10 10 9 9 9 9 8 7 7 7 6 6 6 6 6 5 5 5 6 7 8 9 9
8 8 9 9 9 9 9 9 8 8 9 9 9 9 10 11 11 11 11 11 11 10 10 9 9 9 9 8 7 7 6 5 5 5 5 5 5 5 5 6 7 8 8 9
8 8 9 9 9 9 9 8 9 8 8 8 9 10 10 10 11 11 11 11 11 11 11 10 9 9 9 9 8 7 6 6 5 5 4 4 4 5 5 6 7 7 8 9
7 8 9 9 10 10 10 9 9 8 9 9 9 9 10 10 11 11 11 11 11 12 11 11 10 9 9 9 8 7 6 6 5 4 4 4 4 4 5 6 7 7 8 9
8 8 8 9 9 10 10 10 9 9 9 9 9 9 9 10 11 11 11 11 11 11 11 11 10 10 9 9 8 7 6 6 5 5 5 5 4 4 5 5 6 7 8 9
8 8 7 8 9 9 10 10 9 9 8 8 9 8 8 10 11 11 11 11 11 11 11 10 10 10 10 9 8 7 6 6 5 5 5 4 4 4 4 5 6 7 8 9
8 8 7 7 8 9 9 9 9 9 8 8 8 8 8 9 10 11 11 11 11 11 11 11 10 10 10 9 8 7 7 6 5 5 5 4 4 4 5 6 7 8 9 9
7 8 7 7 8 9 9 10 10 9 8 8 8 8 8 9 11 11 11 12 11 11 11 11 11 11 10 9 9 8 7 7 6 5 5 5 5 5 5 6 7 8 8 9
7 8 7 7 8 9 9 10 10 9 8 8 8 8 9 9 11 11 11 11 11 11 12 12 12 12 11 10 9 9 8 7 7 6 6 6 6 6 6 6 7 8 9 10
8 8 8 7 8 9 9 10 10 10 9 8 7 8 8 10 11 11 11 10 11 11 12 12 12 12 12 11 10 9 9 8 8 8 8 7 7 7 7 7 8 9 10 11
10 9 9 9 9 9 10 10 10 10 9 9 8 9 10 10 11 11 11 10 10 11 11 11 11 11 11 11 11 10 9 9 8 8 8 8 8 8 8 9 9 10 10 11
12 10 11 11 10 10 10 10 10 10 10 9 9 10 10 11 11 12 12 11 11 11 12 12 12 12 12 12 11 11 10 10 9 9 9 9 9 9 9 10 10 10 11 12
13 12 13 12 12 12 12 11 11 11 11 10 11 11 12 12 12 12 12 12 12 12 12 13 13 12 12 12 12 12 11 11 10 10 10 10 10 10 10 10 11 12 13 13
15 14 14 15 14 13 13 12 12 12 12 12 12 12 13 13 13 13 13 13 12 12 12 13 13 13 13 13 13 12 12 11 11 11 11 11 11 11 12 12 12 13 14 15
17 16 16 17 16 15 13 13 13 13 13 13 13 13 13 14 14 14 14 14 13 13 13 13 14 14 13 13 13 12 12 13 12 12 12 13 13 14 14 15 15 16 16 17
18 18 18 18 18 16 15 14 15 14 14 13 13 13 13 14 14 14 14 14 14 14 14 14 14 15 14 14 13 13 13 14 14 14 15 15 15 16 17 17 18 18 19 19
19 19 19 19 19 18 16 17 16 16 15 15 15 14 14 15 14 14 15 15 15 15 15 15 15 15 15 15 15 15 15 15 15 16 16 17 17 18 18 19 20 20 20 21
20 21 20 20 20 18 18 18 18 17 16 16 16 15 15 15 15 15 15 15 15 15 15 15 16 16 16 16 16 16 17 17 17 18 18 19 19 20 20 21 22 22 22 23
22 23 22 21 21 18 18 19 19 18 18 18 18 17 17 17 17 17 17 17 17 16 16 16 16 17 17 17 18 18 18 19 19 19 20 21 22 22 23 24 24 24 24 25
24 24 23 23 22 20 20 20 20 20 20 20 20 19 18 18 18 19 19 18 18 18 18 18 18 18 19 19 19 20 20 20 21 21 22 23 24 25 25 26 26 26 26 27
25 25 24 23 23 22 22 22 22 22 22 21 21 21 21 20 20 20 19 19 19 19 19 19 19 20 20 20 21 22 22 23 23 24 25 26 27 27 27 27 28 28 28 29
27 26 26 25 24 24 24 24 24 24 24 23 23 23 23 22 22 21 21 21 21 21 21 21 21 22 22 23 23 24 25 25 26 27 27 28 29 29 30 30 30 30 31 31
27 27 27 26 26 26 26 26 26 25 25 25 25 24 24 24 24 23 23 23 23 23 23 24 24 24 25 25 26 26 27 27 28 29 29 30 31 31 32 32 32 32 33 33

GEFSCGP_500_meanwind_174.txt.gz
Wind_Speed
6 6 6 7 8 8 8 7 6 7 7 7 7 7 6 6 7 8 8 8 8 8 8 7 7 7 7 6 5 5 4 4 4 4 4 4 5 6 6 7 8 9 10 10
5 7 7 7 8 8 8 7 7 7 7 7 7 6 6 6 7 8 8 8 8 8 8 8 8 7 7 6 5 5 5 5 5 5 5 5 5 6 6 7 8 9 10 10
5 7 8 8 9 9 9 8 7 6 6 7 6 6 6 6 7 8 8 9 9 9 9 8 8 7 6 6 5 5 5 5 5 5 5 5 5 6 6 7 8 9 9 10
7 7 8 9 10 9 9 8 8 6 6 6 6 6 7 7 7 8 9 9 8 8 9 8 8 8 7 6 6 6 6 6 5 5 5 5 5 5 6 7 8 8 8 9
6 7 7 9 10 10 9 9 8 7 6 6 6 6 7 8 8 8 9 9 9 9 9 8 8 7 7 7 6 6 6 5 5 5 5 4 4 5 5 6 7 7 8 9
6 7 8 9 10 11 10 9 8 7 7 6 6 7 8 9 9 9 10 10 9 9 9 8 7 7 7 7 6 6 5 5 5 5 5 4 4 5 5 5 6 7 7 8
5 6 7 8 9 10 11 10 9 7 7 6 7 9 9 10 9 9 9 10 10 10 9 9 8 7 7 7 6 6 6 5 5 5 5 5 5 5 5 6 6 7 7 8
5 5 6 7 9 10 11 11 10 8 7 7 8 10 10 9 9 9 10 10 10 10 9 9 8 7 8 7 7 6 6 6 6 6 6 5 6 6 5 6 7 7 7 8
5 5 6 7 8 10 11 11 10 8 7 6 7 9 9 9 9 9 10 10 10 10 9 9 8 7 8 8 7 6 6 6 6 5 5 5 5 5 6 6 6 6 7 8
6 6 6 7 8 10 11 11 10 8 7 7 6 7 8 8 9 9 10 10 11 11 10 9 9 8 9 9 8 7 7 7 6 5 5 5 6 6 6 6 7 7 7 8
7 7 7 7 8 9 11 10 9 8 7 6 7 8 10 8 9 10 10 10 10 11 11 10 10 9 9 9 9 9 8 7 7 6 6 6 6 7 7 7 7 7 7 8
9 8 8 6 7 9 10 11 10 10 9 9 9 9 10 9 9 9 10 10 10 11 11 11 11 10 10 9 9 9 8 8 8 8 7 7 7 7 7 8 7 8 8 10
10 9 8 7 7 8 9 10 11 11 11 10 10 10 11 10 9 10 10 10 11 11 11 11 11 11 11 10 9 9 9 9 9 9 8 8 8 8 8 8 8 9 10 10
11 10 8 8 8 7 9 10 10 11 11 11 11 11 11 11 10 10 11 11 11 11 11 10 11 11 10 10 10 10 10 10 10 10 9 9 9 9 9 9 9 10 11 11
12 12 10 9 10 10 10 10 11 11 11 11 11 12 11 12 12 11 11 11 11 11 11 10 11 11 11 11 11 11 11 11 11 11 11 10 10 10 10 10 11 11 12 13
14 13 12 11 11 11 12 12 11 11 12 12 12 13 13 13 13 12 11 11 11 12 12 11 11 12 12 12 13 12 12 12 12 12 12 11 11 11 11 11 12 12 13 14
15 14 14 14 13 14 14 13 13 13 12 13 13 14 14 14 14 13 12 12 12 12 12 12 12 12 13 13 13 13 13 13 13 13 13 12 12 13 12 13 13 13 14 15
16 16 16 15 15 15 14 14 14 14 13 14 14 15 16 16 15 15 14 13 13 13 13 13 13 13 13 14 14 14 14 14 14 14 14 14 14 14 14 14 15 15 15 16
19 18 18 18 18 17 15 15 16 15 14 14 15 16 17 17 17 16 15 15 14 15 15 15 15 15 14 14 15 15 15 15 15 15 15 15 16 16 16 16 16 16 17 17
21 20 20 20 20 18 16 17 17 17 16 15 16 17 18 18 18 16 16 16 15 15 16 16 15 15 15 15 16 16 16 16 16 16 17 17 18 18 18 18 18 18 19 19
23 22 22 21 21 19 18 18 19 18 17 17 18 18 18 18 18 17 18 17 16 16 16 16 16 16 16 16 17 17 18 17 18 18 19 19 19 19 20 20 20 21 21 22
23 23 22 22 22 21 20 20 21 21 21 20 19 19 18 18 19 18 18 18 17 17 17 17 17 17 17 18 18 19 19 19 20 20 20 21 21 21 22 22 22 23 23 24
26 24 23 23 23 22 22 23 23 22 22 22 21 20 20 20 19 19 18 18 18 18 18 18 18 18 19 19 20 20 21 21 22 22 22 22 23 23 23 24 24 25 26 26
28 26 26 25 24 24 25 25 24 24 24 24 23 22 22 21 20 20 20 20 20 20 20 20 20 20 20 21 21 22 22 23 24 23 24 24 25 25 25 25 26 27 28 28
28 28 29 28 26 26 26 26 26 26 25 24 24 24 24 23 22 21 22 21 21 21 21 21 21 22 22 23 23 23 23 24 25 25 25 26 26 27 27 27 28 29 30 30
28 29 29 29 28 28 27 28 27 26 26 26 25 25 25 25 25 24 24 23 23 23 23 23 24 24 24 24 24 25 25 26 26 27 27 27 28 28 28 29 30 31 31 32

GEFSCGP_500_meanwind_180.txt.gz
Wind_Speed
4 5 6 7 8 8 9 8 8 8 9 8 7 8 8 7 7 8 7 7 7 7 7 8 8 8 8 7 7 6 5 5 4 3 2 2 2 2 3 4 5 5 6 6
4 5 6 7 8 9 8 8 8 8 8 8 8 8 8 8 7 8 8 7 6 7 7 7 8 8 7 7 6 6 6 5 4 3 2 2 2 3 4 4 5 5 6 6
4 5 6 7 8 9 8 7 7 7 8 8 8 7 8 8 8 8 8 7 7 7 7 7 8 8 7 7 7 7 6 5 4 4 3 2 3 3 3 4 5 5 6 6
4 5 7 8 9 9 9 8 7 7 7 8 8 7 7 7 7 8 8 8 8 8 8 8 8 7 7 7 8 7 6 6 5 4 3 3 3 3 3 4 4 5 6 6
5 6 8 8 8 8 9 9 9 8 7 7 7 7 7 7 7 7 8 8 8 8 8 8 8 8 8 7 7 7 6 6 5 4 3 3 3 3 3 3 3 4 5 6
5 7 8 8 8 7 9 8 8 8 7 7 7 7 7 7 6 7 7 8 8 9 9 9 9 9 8 7 7 7 6 5 5 4 3 3 3 3 3 3 3 4 5 6
6 6 8 8 8 8 9 8 8 8 8 7 7 7 6 7 6 7 7 8 8 8 9 10 9 9 8 8 7 6 6 5 5 4 4 4 3 3 3 3 4 4 5 6
5 6 7 8 8 8 9 9 9 8 7 7 8 7 6 7 7 7 8 9 9 9 9 10 10 9 8 7 7 7 7 6 5 4 4 4 3 3 3 4 4 4 4 5
5 5 7 9 9 9 9 9 9 9 7 7 8 7 6 6 7 7 8 8 9 9 9 9 9 9 8 8 7 7 7 6 5 5 4 4 4 4 4 4 4 4 5 5
5 6 7 8 9 9 9 9 9 9 8 7 8 7 6 6 6 7 8 8 9 10 10 10 10 9 8 8 7 7 7 6 6 5 5 5 5 4 4 4 4 5 5 5
6 6 7 9 9 9 10 9 8 9 9 8 7 7 6 6 6 7 8 8 9 10 10 10 10 9 9 8 8 7 7 6 6 5 5 5 5 5 5 5 5 5 5 5
7 6 7 8 9 10 11 10 10 10 10 9 8 6 6 6 6 7 8 8 9 9 10 10 10 10 9 9 9 8 8 7 7 6 6 6 6 6 6 6 5 5 5 6
9 8 8 9 10 11 11 10 10 10 10 10 8 6 7 7 6 7 7 8 9 9 10 10 10 10 10 10 10 10 9 9 8 7 7 7 7 7 7 7 6 6 6 7
10 10 10 10 10 11 11 11 10 10 10 10 9 8 7 7 7 7 7 8 9 9 10 10 10 10 10 11 11 10 10 9 9 8 8 8 8 8 8 8 8 8 8 8
12 12 12 11 12 12 12 12 11 10 9 10 10 10 9 8 8 8 8 8 9 9 10 10 10 10 11 11 11 11 11 10 10 9 9 9 9 9 9 9 9 9 9 9
14 14 14 13 13 13 13 12 11 10 10 10 11 10 10 10 9 9 9 9 9 10 10 11 11 11 11 11 11 12 11 11 11 11 10 10 10 10 10 10 10 11 11 11
15 15 15 14 15 15 14 12 12 12 10 11 11 11 12 12 11 10 10 10 11 11 11 11 11 11 11 11 11 12 12 12 12 12 11 11 11 11 12 12 12 12 12 13
17 17 17 17 17 17 14 14 14 13 13 13 12 12 13 13 13 12 11 10 11 12 12 11 12 12 12 12 12 13 13 13 13 13 13 13 13 13 13 14 14 14 14 14
19 18 18 19 18 17 15 15 16 15 14 14 13 13 13 14 14 13 12 12 12 12 13 12 13 13 13 14 14 14 14 13 14 14 14 14 15 15 15 15 15 16 16 16
20 20 20 20 19 19 16 16 18 17 16 15 15 14 14 14 14 13 13 13 14 14 14 14 14 14 14 14 14 15 15 14 15 15 15 16 16 16 16 16 17 18 18 18
23 22 22 21 20 19 17 18 18 19 16 16 16 15 14 14 13 14 14 14 15 15 16 16 15 15 15 15 16 16 16 15 16 16 17 17 17 17 18 18 19 20 20 20
25 25 24 23 23 20 19 19 18 18 17 17 16 16 15 14 15 15 15 15 16 17 17 17 17 17 17 17 17 17 17 17 18 18 18 18 18 19 19 20 21 21 22 22
26 26 26 25 24 21 21 21 20 19 19 18 18 17 17 16 16 16 16 17 17 18 18 18 18 18 18 18 18 18 19 19 19 20 20 20 20 21 21 22 23 23 24 24
26 27 27 26 25 24 23 23 22 21 20 20 20 19 18 17 17 17 17 18 18 18 19 19 19 20 20 19 19 19 20 21 21 22 22 22 22 23 24 24 25 25 26 26
26 27 27 28 27 26 24 24 23 22 22 22 21 20 20 19 18 19 19 20 19 19 19 20 20 20 20 20 21 21 21 22 23 23 24 24 24 25 25 26 26 27 27 28
27 27 28 28 28 27 26 25 24 25 24 24 23 22 22 21 20 20 20 20 21 21 21 22 22 21 22 22 23 23 23 23 24 25 25 26 26 26 26 27 28 28 29 29

GEFSCGP_500_meanwind_186.txt.gz
Wind_Speed
2 3 4 4 5 6 6 6 7 8 9 9 8 9 9 10 10 10 10 9 10 11 11 10 9 9 8 8 8 8 8 7 6 5 4 3 3 3 3 3 4 5 5 6
3 4 4 5 5 6 7 7 7 8 9 9 9 9 9 9 10 10 10 10 10 10 10 10 9 9 8 8 8 8 7 7 6 5 4 3 2 2 2 3 4 5 5 5
5 4 5 5 6 6 7 7 7 7 9 9 9 9 10 10 10 10 10 10 10 10 11 10 9 9 9 9 9 8 8 7 7 5 4 3 2 2 2 3 4 4 4 5
5 5 5 6 7 7 7 7 7 8 9 9 9 9 10 10 11 10 9 10 10 10 10 10 10 10 9 9 9 8 8 7 6 5 4 4 3 2 2 3 3 4 4 4
5 6 6 6 6 7 7 7 8 8 9 9 8 9 9 10 10 9 9 10 10 10 10 10 10 10 10 9 9 9 8 7 6 6 5 4 3 3 3 3 3 3 4 4
6 6 6 7 7 8 7 7 7 8 9 9 9 9 9 9 9 9 10 10 10 10 10 11 10 10 10 9 9 9 8 8 7 6 5 4 4 3 3 3 3 3 4 4
6 7 7 7 8 8 8 7 8 8 8 9 9 10 10 9 10 9 10 10 10 11 11 11 11 11 10 9 9 9 8 8 7 6 5 5 4 4 4 3 3 4 4 5
7 7 7 8 8 8 9 8 8 8 8 8 9 9 9 9 9 10 10 11 11 11 12 12 11 11 11 10 10 10 9 8 7 6 5 5 5 4 3 3 3 4 4 5
7 7 8 8 9 9 9 9 8 8 8 8 9 8 9 9 9 9 9 10 10 11 11 12 12 11 11 11 10 10 10 9 8 7 6 5 5 4 4 4 4 4 4 5
8 8 8 9 9 9 9 9 9 8 8 8 8 8 9 8 9 9 9 10 11 11 11 12 12 12 12 12 11 10 10 10 9 8 7 6 6 5 5 5 4 4 5 5
9 9 9 10 10 9 9 10 9 9 8 8 8 8 9 8 9 9 10 11 11 11 12 12 12 12 12 12 11 11 10 10 9 8 8 7 7 6 6 5 5 5 5 6
10 10 10 10 10 9 9 10 10 9 8 8 8 8 8 8 9 9 10 11 12 12 12 12 12 12 12 12 12 12 11 11 10 9 8 8 7 7 7 6 6 6 6 6
11 11 11 11 11 10 10 9 10 10 9 9 9 9 10 10 10 10 11 11 11 11 11 11 12 12 13 13 13 12 12 12 11 10 9 8 8 8 8 7 7 7 7 7
12 12 12 12 11 11 11 11 11 10 9 8 9 9 10 10 10 10 11 11 11 11 11 12 12 12 12 13 13 13 12 12 11 11 10 9 9 8 8 8 8 8 8 8
14 13 12 12 12 12 12 12 12 10 9 9 8 9 10 11 10 10 10 11 11 11 11 12 12 12 12 12 13 13 13 12 12 11 11 10 9 9 9 9 9 9 10 10
16 15 14 14 14 14 14 14 13 12 10 9 9 10 11 11 11 11 11 10 10 10 11 12 12 13 12 12 13 13 13 12 12 12 11 11 10 10 11 11 10 11 11 11
17 16 16 15 15 16 15 14 14 12 11 11 11 10 11 11 11 12 12 11 11 11 12 12 13 13 13 13 13 13 13 13 13 12 12 12 11 11 12 12 12 12 12 12
19 18 17 16 16 17 15 16 15 13 13 13 12 12 12 12 12 13 13 13 13 13 12 13 13 14 14 15 15 14 14 14 14 14 14 13 13 13 13 13 13 14 14 14
20 19 19 18 18 17 16 16 15 15 14 14 13 13 13 13 13 14 14 15 15 15 14 15 15 15 15 15 16 16 15 15 15 16 16 15 15 15 15 15 15 15 16 16
21 21 21 20 19 18 17 16 16 17 16 15 15 14 14 15 15 14 15 16 16 16 16 16 16 16 16 16 17 17 16 16 16 17 17 16 16 17 17 16 16 17 17 18
23 23 23 22 21 20 18 17 18 17 16 17 17 17 16 16 16 15 16 16 17 17 16 17 17 17 17 18 18 18 18 18 18 18 18 18 18 18 18 18 18 19 19 20
24 25 25 24 23 21 19 20 20 19 18 17 18 18 18 18 17 17 17 17 17 17 17 18 18 18 19 19 19 19 19 19 19 19 19 20 19 19 19 20 20 20 21 21
26 25 25 25 24 22 21 21 21 20 20 19 19 19 19 18 18 18 18 18 18 18 18 19 19 19 20 20 20 20 20 21 21 21 21 21 21 21 21 22 22 22 22 23
27 26 26 26 24 23 23 22 22 22 21 21 20 20 20 20 20 20 20 20 20 20 20 20 20 20 21 21 21 21 22 22 23 22 22 22 22 23 23 23 23 24 24 25
27 27 27 27 25 25 24 24 23 23 23 23 22 21 21 21 21 22 22 22 22 22 22 22 21 21 21 22 22 23 24 24 24 24 24 23 24 24 24 24 25 25 26 26
28 28 28 27 27 27 26 25 24 24 24 24 24 23 23 22 22 22 23 23 23 23 23 23 23 23 23 23 24 25 25 25 26 25 25 25 26 26 26 26 26 27 27 28